Terminal Aerodrome Forecast
Issued by NWS

Home | Current Version | Previous Version | Text Only | Print | Product List | Glossary On
Versions: 1 2 3 4 5 6 7 8 9 10 11 12 13 14
072
FTUS42 KMHX 130538
TAFOAJ
TAF
KOAJ 130538Z 1306/1406 30007KT P6SM SCT006 BKN070
      TEMPO 1306/1307 3SM BR BKN004
     FM130900 32007KT P6SM SKC
     FM131400 31010G20KT P6SM SKC
     FM132200 34005KT P6SM SKC
      AMD LTD TO CLD VIS AND WIND=

USA.gov is the U.S. government's official web portal to all federal, state and local government web resources and services.